Station Historical Data
Daily Summary for April 4, 2017 Units:  English    Metric   Both
« Previous Day
Next Day »
Daily Weekly Monthly Yearly Custom
  High: Low: Average:
Temperature: 59.7 °F 40.4 °F 49.9 °F
Dew Point: 54.7 °F 36.8 °F 46.1 °F
Humidity: 91% 79% 87%
Wind Speed: 19.0mph 1.0mph 7.4mph
Wind Gust: 37.0mph - -
Wind- - SSW
Pressure: 29.77 in 29.35 in -
Precipitation: 0.00 in    
Historical Graphs
 
 
Tabular Data for April 4, 2017
Time Temperature Dew Point Pressure Wind Wind Speed Wind Gust Humidity Rainfall Rate (Hourly)
00:04 54.4 °F 50.9 °F 29.50 in ENE 3.0 mph 6.0 mph 88% 0.25 in
00:09 54.3 °F 50.8 °F 29.49 in East 2.0 mph 5.0 mph 88% 0.25 in
00:14 54.2 °F 51.0 °F 29.49 in SE 2.0 mph 7.0 mph 89% 0.25 in
00:19 54.2 °F 51.0 °F 29.49 in ENE 2.0 mph 6.0 mph 89% 0.23 in
00:24 54.1 °F 50.9 °F 29.48 in East 3.0 mph 5.0 mph 89% 0.22 in
00:29 54.1 °F 50.9 °F 29.48 in East 3.0 mph 7.0 mph 89% 0.21 in
00:34 54.0 °F 50.8 °F 29.47 in East 4.0 mph 10.0 mph 89% 0.19 in
00:39 53.9 °F 50.7 °F 29.47 in East 4.0 mph 10.0 mph 89% 0.16 in
00:44 53.8 °F 50.6 °F 29.47 in East 3.0 mph 8.0 mph 89% 0.14 in
00:49 53.7 °F 50.5 °F 29.47 in East 3.0 mph 8.0 mph 89% 0.12 in
00:54 53.6 °F 50.4 °F 29.46 in ESE 3.0 mph 8.0 mph 89% 0.12 in
00:59 53.5 °F 50.3 °F 29.46 in ESE 3.0 mph 9.0 mph 89% 0.10 in
01:04 53.4 °F 50.2 °F 29.45 in SE 2.0 mph 8.0 mph 89% 0.10 in
01:09 53.4 °F 50.2 °F 29.45 in East 5.0 mph 5.0 mph 89% 0.10 in
01:14 53.3 °F 50.1 °F 29.45 in SSE 4.0 mph 7.0 mph 89% 0.10 in
01:19 53.3 °F 50.1 °F 29.45 in ESE 2.0 mph 6.0 mph 89% 0.10 in
01:24 53.2 °F 50.0 °F 29.45 in SE 3.0 mph 5.0 mph 89% 0.10 in
01:29 53.2 °F 50.0 °F 29.45 in SE 2.0 mph 6.0 mph 89% 0.09 in
01:34 53.1 °F 49.9 °F 29.45 in SE 1.0 mph 6.0 mph 89% 0.08 in
01:39 53.0 °F 49.8 °F 29.44 in SE 1.0 mph 4.0 mph 89% 0.09 in
01:44 53.0 °F 50.1 °F 29.44 in SE 2.0 mph 5.0 mph 90% 0.08 in
01:49 53.0 °F 50.1 °F 29.44 in SE 2.0 mph 5.0 mph 90% 0.07 in
01:54 53.0 °F 50.1 °F 29.43 in SSE 2.0 mph 6.0 mph 90% 0.05 in
01:59 53.0 °F 50.1 °F 29.43 in SSW 1.0 mph 7.0 mph 90% 0.05 in
02:04 53.0 °F 49.8 °F 29.42 in SSE 4.0 mph 6.0 mph 89% 0.05 in
02:09 53.0 °F 49.8 °F 29.42 in South 3.0 mph 6.0 mph 89% 0.04 in
02:14 53.0 °F 49.8 °F 29.42 in South 3.0 mph 7.0 mph 89% 0.03 in
02:19 53.1 °F 49.9 °F 29.41 in South 3.0 mph 8.0 mph 89% 0.03 in
02:24 53.1 °F 49.9 °F 29.40 in South 2.0 mph 9.0 mph 89% 0.03 in
02:29 53.1 °F 49.9 °F 29.40 in SSE 4.0 mph 8.0 mph 89% 0.02 in
02:34 53.2 °F 49.7 °F 29.40 in SSE 4.0 mph 8.0 mph 88% 0.02 in
02:39 53.2 °F 49.7 °F 29.39 in South 4.0 mph 10.0 mph 88% 0.01 in
02:44 53.3 °F 49.8 °F 29.39 in South 5.0 mph 10.0 mph 88% 0.01 in
02:49 53.4 °F 49.9 °F 29.39 in South 4.0 mph 8.0 mph 88% 0.01 in
02:54 53.5 °F 50.0 °F 29.38 in South 4.0 mph 8.0 mph 88% 0.01 in
02:59 53.5 °F 50.0 °F 29.38 in South 4.0 mph 6.0 mph 88% 0.01 in
03:04 53.7 °F 49.9 °F 29.38 in South 4.0 mph 7.0 mph 87% 0.01 in
03:09 53.8 °F 50.0 °F 29.37 in South 4.0 mph 7.0 mph 87% 0.01 in
03:14 53.8 °F 50.0 °F 29.37 in South 4.0 mph 5.0 mph 87% 0.01 in
03:19 53.9 °F 50.1 °F 29.37 in South 3.0 mph 5.0 mph 87% 0.01 in
03:24 54.0 °F 50.2 °F 29.37 in South 4.0 mph 9.0 mph 87% 0.00 in
03:29 54.1 °F 50.0 °F 29.36 in SSE 3.0 mph 5.0 mph 86% 0.00 in
03:34 54.1 °F 50.0 °F 29.36 in South 1.0 mph 4.0 mph 86% 0.00 in
03:39 54.2 °F 50.1 °F 29.37 in South 2.0 mph 6.0 mph 86% 0.00 in
03:44 54.3 °F 50.2 °F 29.36 in SSW 4.0 mph 6.0 mph 86% 0.00 in
03:49 54.3 °F 50.2 °F 29.37 in South 3.0 mph 6.0 mph 86% 0.00 in
03:54 54.2 °F 50.1 °F 29.36 in South 3.0 mph 6.0 mph 86% 0.00 in
03:59 54.5 °F 50.4 °F 29.36 in SSW 3.0 mph 8.0 mph 86% 0.00 in
04:04 54.8 °F 50.4 °F 29.36 in SSW 3.0 mph 8.0 mph 85% 0.00 in
04:09 54.8 °F 50.4 °F 29.36 in SSW 2.0 mph 7.0 mph 85% 0.00 in
04:14 54.7 °F 50.3 °F 29.36 in SSW 2.0 mph 4.0 mph 85% 0.00 in
04:19 54.7 °F 50.3 °F 29.36 in SW 3.0 mph 7.0 mph 85% 0.00 in
04:24 54.9 °F 50.8 °F 29.36 in SSW 3.0 mph 7.0 mph 86% 0.00 in
04:29 55.3 °F 51.2 °F 29.36 in SSW 3.0 mph 7.0 mph 86% 0.00 in
04:34 55.7 °F 51.3 °F 29.36 in WSW 4.0 mph 7.0 mph 85% 0.00 in
04:39 56.2 °F 51.4 °F 29.36 in SSW 4.0 mph 8.0 mph 84% 0.00 in
04:44 56.5 °F 51.4 °F 29.36 in South 6.0 mph 7.0 mph 83% 0.00 in
04:49 56.6 °F 51.5 °F 29.36 in South 6.0 mph 8.0 mph 83% 0.00 in
04:54 56.6 °F 51.5 °F 29.36 in SSE 4.0 mph 8.0 mph 83% 0.00 in
04:59 56.4 °F 51.3 °F 29.36 in SSW 4.0 mph 10.0 mph 83% 0.00 in
05:04 56.2 °F 50.8 °F 29.36 in SSW 5.0 mph 12.0 mph 82% 0.00 in
05:09 56.0 °F 50.6 °F 29.36 in SSW 5.0 mph 12.0 mph 82% 0.00 in
05:14 55.8 °F 50.7 °F 29.36 in South 5.0 mph 8.0 mph 83% 0.00 in
05:19 55.5 °F 50.4 °F 29.36 in South 4.0 mph 8.0 mph 83% 0.00 in
05:24 55.3 °F 50.5 °F 29.36 in South 3.0 mph 6.0 mph 84% 0.00 in
05:29 55.2 °F 50.4 °F 29.36 in South 4.0 mph 8.0 mph 84% 0.00 in
05:34 55.1 °F 50.4 °F 29.36 in South 3.0 mph 7.0 mph 84% 0.00 in
05:39 55.1 °F 50.4 °F 29.36 in South 5.0 mph 7.0 mph 84% 0.00 in
05:44 55.1 °F 50.4 °F 29.36 in SSW 3.0 mph 7.0 mph 84% 0.00 in
05:49 55.1 °F 50.7 °F 29.36 in SSW 6.0 mph 7.0 mph 85% 0.00 in
05:54 55.1 °F 50.7 °F 29.36 in SSW 1.0 mph 8.0 mph 85% 0.00 in
05:59 55.0 °F 50.6 °F 29.36 in South 3.0 mph 7.0 mph 85% 0.00 in
06:04 54.9 °F 50.8 °F 29.36 in SSW 3.0 mph 7.0 mph 86% 0.00 in
06:09 54.8 °F 50.7 °F 29.37 in SSW 3.0 mph 7.0 mph 86% 0.00 in
06:14 54.7 °F 50.9 °F 29.36 in SSW 3.0 mph 8.0 mph 87% 0.02 in
06:19 54.5 °F 51.0 °F 29.36 in South 3.0 mph 8.0 mph 88% 0.03 in
06:24 54.4 °F 50.9 °F 29.37 in SSW 3.0 mph 5.0 mph 88% 0.04 in
06:29 54.4 °F 51.2 °F 29.36 in SSW 2.0 mph 4.0 mph 89% 0.04 in
06:34 54.3 °F 51.1 °F 29.36 in South 1.0 mph 2.0 mph 89% 0.05 in
06:39 54.2 °F 51.0 °F 29.36 in South 1.0 mph 3.0 mph 89% 0.05 in
06:44 54.3 °F 51.1 °F 29.36 in SSE 1.0 mph 4.0 mph 89% 0.05 in
06:49 54.5 °F 51.3 °F 29.36 in South 1.0 mph 4.0 mph 89% 0.05 in
06:54 54.6 °F 51.4 °F 29.36 in SSE 4.0 mph 5.0 mph 89% 0.05 in
06:59 54.7 °F 51.5 °F 29.36 in SSE 2.0 mph 6.0 mph 89% 0.05 in
07:04 54.9 °F 51.7 °F 29.36 in SSE 4.0 mph 6.0 mph 89% 0.05 in
07:09 54.9 °F 51.4 °F 29.36 in SSE 3.0 mph 6.0 mph 88% 0.05 in
07:14 55.0 °F 51.5 °F 29.36 in South 3.0 mph 5.0 mph 88% 0.03 in
07:19 55.1 °F 51.6 °F 29.36 in South 3.0 mph 7.0 mph 88% 0.02 in
07:24 55.3 °F 51.8 °F 29.36 in South 4.0 mph 8.0 mph 88% 0.01 in
07:29 55.5 °F 51.7 °F 29.36 in South 4.0 mph 9.0 mph 87% 0.01 in
07:34 55.7 °F 51.9 °F 29.36 in South 5.0 mph 9.0 mph 87% 0.00 in
07:39 55.9 °F 51.8 °F 29.36 in South 10.0 mph 11.0 mph 86% 0.00 in
07:44 56.1 °F 52.0 °F 29.36 in SSW 2.0 mph 9.0 mph 86% 0.00 in
07:49 56.2 °F 52.1 °F 29.36 in South 4.0 mph 9.0 mph 86% 0.00 in
07:54 56.4 °F 52.3 °F 29.36 in SSW 5.0 mph 10.0 mph 86% 0.00 in
07:59 56.5 °F 52.0 °F 29.36 in South 5.0 mph 10.0 mph 85% 0.00 in
08:04 56.7 °F 52.2 °F 29.36 in SSW 3.0 mph 7.0 mph 85% 0.00 in
08:09 56.9 °F 52.4 °F 29.36 in South 3.0 mph 9.0 mph 85% 0.00 in
08:14 57.1 °F 52.6 °F 29.36 in SSE 4.0 mph 8.0 mph 85% 0.00 in
08:19 57.3 °F 52.5 °F 29.36 in South 5.0 mph 9.0 mph 84% 0.00 in
08:24 57.4 °F 52.6 °F 29.36 in South 5.0 mph 12.0 mph 84% 0.00 in
08:29 57.6 °F 52.8 °F 29.36 in South 5.0 mph 12.0 mph 84% 0.00 in
08:34 57.6 °F 52.8 °F 29.36 in South 5.0 mph 10.0 mph 84% 0.00 in
08:39 57.7 °F 53.2 °F 29.36 in South 5.0 mph 10.0 mph 85% 0.00 in
08:44 57.7 °F 52.9 °F 29.36 in SSW 4.0 mph 7.0 mph 84% 0.00 in
08:49 57.7 °F 52.9 °F 29.36 in South 5.0 mph 12.0 mph 84% 0.00 in
08:54 57.7 °F 52.9 °F 29.36 in South 6.0 mph 12.0 mph 84% 0.00 in
08:59 57.7 °F 53.2 °F 29.36 in South 4.0 mph 9.0 mph 85% 0.00 in
09:04 57.8 °F 53.3 °F 29.36 in South 6.0 mph 8.0 mph 85% 0.00 in
09:09 58.0 °F 53.2 °F 29.35 in South 6.0 mph 11.0 mph 84% 0.00 in
09:14 58.2 °F 53.4 °F 29.35 in South 6.0 mph 8.0 mph 84% 0.00 in
09:19 58.3 °F 53.5 °F 29.35 in South 5.0 mph 10.0 mph 84% 0.00 in
09:24 59.5 °F 54.7 °F 29.35 in South 5.0 mph 11.0 mph 84% 0.00 in
09:29 59.7 °F 54.5 °F 29.35 in SSW 5.0 mph 11.0 mph 83% 0.00 in
09:34 59.7 °F 54.5 °F 29.35 in SSW 4.0 mph 7.0 mph 83% 0.00 in
09:39 59.3 °F 54.1 °F 29.35 in SSW 4.0 mph 8.0 mph 83% 0.01 in
09:44 59.0 °F 54.2 °F 29.35 in South 4.0 mph 9.0 mph 84% 0.01 in
09:49 58.7 °F 53.9 °F 29.36 in SW 6.0 mph 11.0 mph 84% 0.01 in
09:54 58.7 °F 54.2 °F 29.35 in SW 6.0 mph 16.0 mph 85% 0.01 in
09:59 58.5 °F 54.3 °F 29.35 in SW 7.0 mph 16.0 mph 86% 0.01 in
10:04 58.6 °F 54.4 °F 29.35 in SW 6.0 mph 14.0 mph 86% 0.01 in
10:09 58.8 °F 54.6 °F 29.35 in SW 5.0 mph 10.0 mph 86% 0.01 in
10:14 58.8 °F 54.6 °F 29.35 in SW 4.0 mph 10.0 mph 86% 0.01 in
10:19 58.4 °F 54.2 °F 29.36 in WSW 4.0 mph 9.0 mph 86% 0.01 in
10:25 57.7 °F 53.5 °F 29.36 in WSW 2.0 mph 10.0 mph 86% 0.01 in
10:34 56.2 °F 52.1 °F 29.37 in WSW 9.0 mph 13.0 mph 86% 0.01 in
10:39 55.6 °F 51.8 °F 29.37 in WSW 7.0 mph 13.0 mph 87% 0.00 in
10:44 55.3 °F 51.8 °F 29.37 in WNW 7.0 mph 8.0 mph 88% 0.00 in
10:49 55.3 °F 52.1 °F 29.37 in WNW 5.0 mph 9.0 mph 89% 0.00 in
10:54 55.2 °F 52.0 °F 29.38 in West 11.0 mph 14.0 mph 89% 0.01 in
10:59 54.8 °F 51.6 °F 29.38 in WSW 7.0 mph 19.0 mph 89% 0.01 in
11:04 54.2 °F 51.0 °F 29.38 in WSW 8.0 mph 19.0 mph 89% 0.03 in
11:09 54.2 °F 51.3 °F 29.38 in WNW 14.0 mph 18.0 mph 90% 0.05 in
11:14 54.4 °F 51.8 °F 29.38 in WSW 10.0 mph 18.0 mph 91% 0.05 in
11:19 54.4 °F 51.8 °F 29.38 in WSW 10.0 mph 18.0 mph 91% 0.06 in
11:24 54.1 °F 51.5 °F 29.38 in WSW 10.0 mph 23.0 mph 91% 0.06 in
11:29 54.1 °F 51.2 °F 29.38 in WSW 17.0 mph 19.0 mph 90% 0.06 in
11:34 53.7 °F 51.1 °F 29.38 in SW 8.0 mph 20.0 mph 91% 0.06 in
11:39 53.7 °F 51.1 °F 29.39 in West 8.0 mph 25.0 mph 91% 0.06 in
11:44 53.9 °F 51.3 °F 29.39 in WSW 12.0 mph 19.0 mph 91% 0.06 in
11:49 53.8 °F 50.9 °F 29.39 in West 6.0 mph 25.0 mph 90% 0.06 in
11:54 53.4 °F 50.5 °F 29.39 in SSW 10.0 mph 21.0 mph 90% 0.05 in
11:59 53.0 °F 50.1 °F 29.39 in SW 4.0 mph 17.0 mph 90% 0.05 in
12:04 52.5 °F 49.7 °F 29.39 in West 8.0 mph 18.0 mph 90% 0.03 in
12:09 52.0 °F 49.2 °F 29.39 in WSW 11.0 mph 21.0 mph 90% 0.01 in
12:14 51.4 °F 48.6 °F 29.39 in WSW 11.0 mph 21.0 mph 90% 0.01 in
12:19 50.8 °F 48.0 °F 29.39 in WSW 11.0 mph 31.0 mph 90% 0.00 in
12:24 50.4 °F 47.6 °F 29.40 in WSW 12.0 mph 31.0 mph 90% 0.00 in
12:29 50.0 °F 47.2 °F 29.40 in WSW 11.0 mph 18.0 mph 90% 0.00 in
12:34 49.9 °F 47.1 °F 29.41 in West 11.0 mph 21.0 mph 90% 0.00 in
12:39 49.8 °F 47.0 °F 29.41 in WSW 10.0 mph 26.0 mph 90% 0.00 in
12:44 49.6 °F 46.8 °F 29.41 in WSW 11.0 mph 25.0 mph 90% 0.00 in
12:49 49.6 °F 46.8 °F 29.41 in SW 9.0 mph 21.0 mph 90% 0.00 in
12:54 49.2 °F 46.1 °F 29.42 in SSE 12.0 mph 20.0 mph 89% 0.00 in
12:59 48.2 °F 45.1 °F 29.42 in SSW 8.0 mph 18.0 mph 89% 0.00 in
13:04 47.8 °F 44.7 °F 29.43 in SW 13.0 mph 21.0 mph 89% 0.00 in
13:09 47.8 °F 44.7 °F 29.43 in WSW 11.0 mph 21.0 mph 89% 0.00 in
13:14 47.8 °F 44.4 °F 29.43 in WSW 11.0 mph 20.0 mph 88% 0.00 in
13:19 47.8 °F 44.1 °F 29.44 in WSW 12.0 mph 21.0 mph 87% 0.00 in
13:24 47.8 °F 44.1 °F 29.44 in WSW 11.0 mph 21.0 mph 87% 0.00 in
13:29 48.1 °F 44.1 °F 29.44 in WSW 14.0 mph 19.0 mph 86% 0.00 in
13:34 47.6 °F 43.3 °F 29.45 in West 6.0 mph 21.0 mph 85% 0.00 in
13:39 47.3 °F 43.3 °F 29.45 in SW 12.0 mph 23.0 mph 86% 0.00 in
13:44 47.0 °F 42.7 °F 29.45 in SW 11.0 mph 23.0 mph 85% 0.00 in
13:49 47.0 °F 42.7 °F 29.45 in SW 11.0 mph 22.0 mph 85% 0.00 in
13:54 47.0 °F 42.7 °F 29.45 in South 9.0 mph 20.0 mph 85% 0.00 in
13:59 47.1 °F 42.5 °F 29.45 in SW 9.0 mph 23.0 mph 84% 0.00 in
14:04 47.1 °F 42.5 °F 29.45 in NW 15.0 mph 24.0 mph 84% 0.00 in
14:09 47.2 °F 42.6 °F 29.45 in SW 18.0 mph 18.0 mph 84% 0.00 in
14:14 47.2 °F 42.3 °F 29.45 in SSW 10.0 mph 24.0 mph 83% 0.00 in
14:19 47.8 °F 42.9 °F 29.45 in WSW 12.0 mph 24.0 mph 83% 0.00 in
14:24 48.8 °F 43.9 °F 29.45 in WSW 11.0 mph 22.0 mph 83% 0.00 in
14:29 49.7 °F 43.8 °F 29.45 in WSW 12.0 mph 23.0 mph 80% 0.00 in
14:34 48.9 °F 42.7 °F 29.45 in SSE 19.0 mph 25.0 mph 79% 0.00 in
14:39 48.6 °F 42.7 °F 29.45 in WSW 18.0 mph 28.0 mph 80% 0.00 in
14:44 48.5 °F 42.6 °F 29.45 in WSW 11.0 mph 37.0 mph 80% 0.00 in
14:49 48.5 °F 42.6 °F 29.46 in WSW 16.0 mph 37.0 mph 80% 0.00 in
14:54 47.9 °F 42.0 °F 29.46 in WSW 16.0 mph 34.0 mph 80% 0.00 in
14:59 47.4 °F 41.9 °F 29.47 in SW 6.0 mph 28.0 mph 81% 0.00 in
15:04 47.2 °F 42.0 °F 29.47 in SW 16.0 mph 33.0 mph 82% 0.00 in
15:09 47.0 °F 41.8 °F 29.47 in SW 3.0 mph 26.0 mph 82% 0.00 in
15:14 46.8 °F 41.9 °F 29.47 in SSW 17.0 mph 26.0 mph 83% 0.00 in
15:19 46.8 °F 41.9 °F 29.48 in SW 12.0 mph 30.0 mph 83% 0.00 in
15:24 46.9 °F 42.3 °F 29.47 in SW 15.0 mph 30.0 mph 84% 0.00 in
15:29 47.0 °F 42.4 °F 29.48 in WSW 14.0 mph 29.0 mph 84% 0.00 in
15:34 47.0 °F 42.4 °F 29.48 in WSW 15.0 mph 30.0 mph 84% 0.00 in
15:39 47.0 °F 42.4 °F 29.48 in SW 16.0 mph 36.0 mph 84% 0.00 in
15:44 46.9 °F 42.3 °F 29.48 in WSW 9.0 mph 27.0 mph 84% 0.00 in
15:49 46.8 °F 42.2 °F 29.48 in South 13.0 mph 24.0 mph 84% 0.00 in
15:54 46.7 °F 42.4 °F 29.49 in WSW 15.0 mph 29.0 mph 85% 0.00 in
15:59 46.4 °F 42.1 °F 29.49 in WSW 15.0 mph 30.0 mph 85% 0.00 in
16:04 46.2 °F 41.9 °F 29.49 in WSW 14.0 mph 30.0 mph 85% 0.00 in
16:09 46.1 °F 41.8 °F 29.49 in WNW 16.0 mph 24.0 mph 85% 0.00 in
16:14 45.8 °F 41.5 °F 29.50 in South 13.0 mph 27.0 mph 85% 0.00 in
16:19 45.7 °F 41.4 °F 29.49 in SW 14.0 mph 24.0 mph 85% 0.00 in
16:24 45.6 °F 41.7 °F 29.49 in WSW 19.0 mph 27.0 mph 86% 0.00 in
16:29 45.6 °F 41.7 °F 29.50 in SW 15.0 mph 29.0 mph 86% 0.00 in
16:34 45.5 °F 41.3 °F 29.50 in WSW 16.0 mph 33.0 mph 85% 0.00 in
16:39 45.4 °F 41.2 °F 29.50 in WSW 15.0 mph 33.0 mph 85% 0.00 in
16:44 45.5 °F 41.6 °F 29.50 in WSW 14.0 mph 29.0 mph 86% 0.00 in
16:49 45.6 °F 41.7 °F 29.51 in SW 11.0 mph 27.0 mph 86% 0.00 in
16:54 45.6 °F 41.7 °F 29.52 in WSW 12.0 mph 22.0 mph 86% 0.00 in
16:59 45.6 °F 41.7 °F 29.52 in West 9.0 mph 24.0 mph 86% 0.00 in
17:04 45.5 °F 41.6 °F 29.52 in WSW 13.0 mph 29.0 mph 86% 0.00 in
17:09 45.4 °F 41.5 °F 29.52 in SSW 12.0 mph 23.0 mph 86% 0.00 in
17:14 45.3 °F 41.7 °F 29.52 in West 10.0 mph 21.0 mph 87% 0.00 in
17:19 45.2 °F 41.6 °F 29.53 in WSW 12.0 mph 24.0 mph 87% 0.00 in
17:24 45.2 °F 41.9 °F 29.53 in West 12.0 mph 22.0 mph 88% 0.00 in
17:29 45.1 °F 41.8 °F 29.53 in WSW 13.0 mph 22.0 mph 88% 0.00 in
17:34 45.0 °F 41.4 °F 29.53 in WSW 13.0 mph 29.0 mph 87% 0.00 in
17:39 44.8 °F 41.2 °F 29.54 in WSW 12.0 mph 29.0 mph 87% 0.00 in
17:44 44.7 °F 41.1 °F 29.54 in WSW 11.0 mph 25.0 mph 87% 0.00 in
17:49 44.5 °F 40.9 °F 29.54 in WSW 12.0 mph 25.0 mph 87% 0.00 in
17:54 44.4 °F 40.8 °F 29.55 in WSW 13.0 mph 26.0 mph 87% 0.00 in
17:59 44.2 °F 40.6 °F 29.56 in NW 10.0 mph 22.0 mph 87% 0.00 in
18:04 44.2 °F 40.9 °F 29.55 in WSW 7.0 mph 21.0 mph 88% 0.00 in
18:09 44.1 °F 41.1 °F 29.56 in WSW 13.0 mph 24.0 mph 89% 0.00 in
18:14 43.8 °F 40.8 °F 29.56 in WSW 12.0 mph 24.0 mph 89% 0.00 in
18:19 43.6 °F 40.6 °F 29.56 in SW 12.0 mph 26.0 mph 89% 0.00 in
18:24 43.5 °F 40.5 °F 29.56 in WSW 17.0 mph 21.0 mph 89% 0.00 in
18:29 43.2 °F 40.5 °F 29.57 in SSW 8.0 mph 21.0 mph 90% 0.00 in
18:34 43.1 °F 40.4 °F 29.58 in SW 9.0 mph 21.0 mph 90% 0.00 in
18:39 43.0 °F 40.3 °F 29.58 in WSW 12.0 mph 21.0 mph 90% 0.00 in
18:44 42.8 °F 40.1 °F 29.58 in WSW 11.0 mph 21.0 mph 90% 0.00 in
18:49 42.6 °F 39.9 °F 29.58 in WSW 12.0 mph 21.0 mph 90% 0.00 in
18:54 42.5 °F 39.8 °F 29.58 in WSW 11.0 mph 20.0 mph 90% 0.00 in
18:59 42.5 °F 39.5 °F 29.59 in South 5.0 mph 20.0 mph 89% 0.00 in
19:04 42.5 °F 39.5 °F 29.59 in WSW 10.0 mph 20.0 mph 89% 0.00 in
19:09 42.5 °F 39.5 °F 29.59 in WSW 8.0 mph 20.0 mph 89% 0.00 in
19:14 42.6 °F 39.9 °F 29.60 in WSW 10.0 mph 20.0 mph 90% 0.00 in
19:19 42.8 °F 40.1 °F 29.60 in WSW 9.0 mph 19.0 mph 90% 0.00 in
19:24 42.8 °F 40.1 °F 29.60 in WSW 9.0 mph 17.0 mph 90% 0.00 in
19:29 42.9 °F 40.2 °F 29.61 in West 13.0 mph 14.0 mph 90% 0.00 in
19:34 43.0 °F 40.3 °F 29.61 in West 9.0 mph 15.0 mph 90% 0.00 in
19:39 43.0 °F 40.3 °F 29.61 in SW 6.0 mph 15.0 mph 90% 0.00 in
19:44 43.1 °F 40.4 °F 29.61 in WSW 7.0 mph 15.0 mph 90% 0.00 in
19:49 43.3 °F 40.6 °F 29.61 in WSW 7.0 mph 17.0 mph 90% 0.00 in
19:54 43.3 °F 40.6 °F 29.62 in WSW 8.0 mph 17.0 mph 90% 0.00 in
19:59 43.3 °F 40.3 °F 29.62 in SW 8.0 mph 13.0 mph 89% 0.00 in
20:04 43.4 °F 40.4 °F 29.62 in WSW 7.0 mph 13.0 mph 89% 0.00 in
20:09 43.4 °F 40.1 °F 29.63 in SW 3.0 mph 14.0 mph 88% 0.00 in
20:14 43.4 °F 40.1 °F 29.63 in SW 10.0 mph 13.0 mph 88% 0.00 in
20:19 43.5 °F 39.9 °F 29.64 in WSW 8.0 mph 16.0 mph 87% 0.00 in
20:24 43.5 °F 39.9 °F 29.64 in WSW 8.0 mph 16.0 mph 87% 0.00 in
20:29 43.5 °F 39.9 °F 29.65 in WSW 7.0 mph 15.0 mph 87% 0.00 in
20:34 43.5 °F 39.9 °F 29.65 in WSW 7.0 mph 15.0 mph 87% 0.00 in
20:39 43.3 °F 39.7 °F 29.66 in SW 13.0 mph 13.0 mph 87% 0.00 in
20:44 43.0 °F 39.4 °F 29.66 in WSW 5.0 mph 13.0 mph 87% 0.00 in
20:49 42.8 °F 39.2 °F 29.67 in WSW 7.0 mph 16.0 mph 87% 0.00 in
20:54 42.8 °F 38.9 °F 29.67 in WSW 8.0 mph 16.0 mph 86% 0.00 in
20:59 42.9 °F 39.0 °F 29.67 in WSW 8.0 mph 17.0 mph 86% 0.00 in
21:04 42.9 °F 39.0 °F 29.67 in West 10.0 mph 18.0 mph 86% 0.00 in
21:09 42.9 °F 39.0 °F 29.68 in WSW 9.0 mph 13.0 mph 86% 0.00 in
21:14 42.7 °F 38.8 °F 29.68 in WSW 8.0 mph 16.0 mph 86% 0.00 in
21:19 42.3 °F 38.4 °F 29.69 in SW 5.0 mph 14.0 mph 86% 0.00 in
21:24 42.0 °F 38.1 °F 29.70 in SW 7.0 mph 14.0 mph 86% 0.00 in
21:29 41.6 °F 38.0 °F 29.70 in SW 7.0 mph 14.0 mph 87% 0.00 in
21:34 41.5 °F 37.9 °F 29.71 in SW 8.0 mph 13.0 mph 87% 0.00 in
21:39 41.4 °F 38.1 °F 29.70 in SW 8.0 mph 14.0 mph 88% 0.00 in
21:44 41.4 °F 38.1 °F 29.71 in SW 7.0 mph 14.0 mph 88% 0.00 in
21:49 41.3 °F 38.0 °F 29.71 in West 8.0 mph 16.0 mph 88% 0.00 in
21:54 41.2 °F 37.9 °F 29.71 in SW 10.0 mph 17.0 mph 88% 0.00 in
21:59 41.1 °F 37.8 °F 29.72 in SW 10.0 mph 17.0 mph 88% 0.00 in
22:04 40.9 °F 37.6 °F 29.72 in WSW 12.0 mph 15.0 mph 88% 0.00 in
22:09 40.9 °F 37.6 °F 29.73 in WSW 8.0 mph 13.0 mph 88% 0.00 in
22:14 40.9 °F 37.6 °F 29.73 in SW 11.0 mph 16.0 mph 88% 0.00 in
22:19 40.9 °F 37.6 °F 29.73 in SW 6.0 mph 14.0 mph 88% 0.00 in
22:24 40.9 °F 37.6 °F 29.73 in WSW 6.0 mph 16.0 mph 88% 0.00 in
22:29 40.7 °F 37.1 °F 29.73 in WSW 8.0 mph 16.0 mph 87% 0.00 in
22:34 40.7 °F 37.1 °F 29.73 in WSW 9.0 mph 18.0 mph 87% 0.00 in
22:39 40.7 °F 37.1 °F 29.74 in WSW 9.0 mph 18.0 mph 87% 0.00 in
22:44 40.7 °F 37.1 °F 29.73 in WSW 8.0 mph 19.0 mph 87% 0.00 in
22:49 40.7 °F 37.1 °F 29.74 in WSW 8.0 mph 17.0 mph 87% 0.00 in
22:54 40.7 °F 37.1 °F 29.74 in South 6.0 mph 19.0 mph 87% 0.00 in
22:59 40.7 °F 37.1 °F 29.74 in WSW 8.0 mph 19.0 mph 87% 0.00 in
23:04 40.8 °F 37.2 °F 29.75 in WSW 7.0 mph 15.0 mph 87% 0.00 in
23:09 40.9 °F 37.3 °F 29.75 in WSW 7.0 mph 15.0 mph 87% 0.00 in
23:14 40.9 °F 37.3 °F 29.75 in WSW 11.0 mph 14.0 mph 87% 0.00 in
23:19 40.9 °F 37.3 °F 29.75 in SW 8.0 mph 15.0 mph 87% 0.00 in
23:24 40.8 °F 37.2 °F 29.76 in West 8.0 mph 16.0 mph 87% 0.00 in
23:29 40.8 °F 36.9 °F 29.76 in West 4.0 mph 17.0 mph 86% 0.00 in
23:34 40.8 °F 37.2 °F 29.76 in WSW 8.0 mph 18.0 mph 87% 0.00 in
23:39 40.8 °F 37.2 °F 29.76 in WSW 8.0 mph 18.0 mph 87% 0.00 in
23:44 40.7 °F 37.1 °F 29.77 in WSW 8.0 mph 15.0 mph 87% 0.00 in
23:49 40.7 °F 37.1 °F 29.76 in WSW 8.0 mph 14.0 mph 87% 0.00 in
23:54 40.5 °F 36.9 °F 29.76 in WSW 8.0 mph 17.0 mph 87% 0.00 in
23:59 40.4 °F 36.8 °F 29.76 in NW 7.0 mph 14.0 mph 87% 0.00 in
Buffalo, New York, USA
Compliments of Weather Underground - 2.5 mb